Sioux Gateway Airport
Wednesday 10:52 PM
Temperature66° (82°/53°)
Dew Point59°
Relative Humidity78
%
Visibility10
mi
Pressure1011.2
mb
Wind DirectionSE
130°
Wind Speed9
mph
Precipitation Today0.00"

Terminal Aerodrome Forecast

465 
FTUS43 KFSD 232320
TAFSUX
TAF
KSUX 232320Z 2400/2424 17008KT P6SM FEW150
     FM241100 24005KT P6SM SCT200
     FM241400 31006KT P6SM SKC=

Last 30 Observations

Time PresWx Temp DP Feels RH% Vsby Pressure Ceiling Direction Speed 1h Precip
10:52 PM 66° 59° 78
%
10
mi
1011.2
mb
SE
130°
9
mph
0.00"
9:52 PM 68° 58° 70
%
10
mi
1011.5
mb
SE
130°
9
mph
0.00"
8:52 PM 71° 59° 71°66
%
10
mi
1011.5
mb
SSE
150°
9
mph
0.00"
7:52 PM 72° 59° 72°64
%
10
mi
1011.2
mb
SSE
150°
8
mph
0.00"
6:52 PM 76° 60° 76°58
%
10
mi
1010.8
mb
SSE
160°
9
mph
0.00"
5:52 PM 79° 60° 79°52
%
10
mi
1011.2
mb
S
180°
15
mph
0.00"
4:52 PM 81° 60° 82°49
%
10
mi
1011.2
mb
S
170°
15
mph
0.00"
3:52 PM 81° 63° 82°54
%
10
mi
1011.5
mb
SSE
160°
17
mph
(G26)
0.00"
2:52 PM 80° 64° 82°58
%
10
mi
1012.2
mb
S
170°
17
mph
(G24)
0.00"
1:52 PM 78° 63° 78°60
%
10
mi
1013.2
mb
SSE
160°
13
mph
(G25)
0.00"
12:52 PM 77° 63° 77°62
%
10
mi
1013.9
mb
S
180°
15
mph
(G26)
0.00"
11:52 AM 75° 63° 75°66
%
10
mi
1014.6
mb
S
180°
15
mph
0.00"
10:52 AM 71° 63° 71°76
%
10
mi
1014.9
mb
SSE
150°
8
mph
0.00"
9:52 AM BR HZ 66° 62° 87
%
10
mi
1015.2
mb
SE
140°
7
mph
0.00"
8:52 AM BR HZ 59° 58° 96
%
5
mi
1015.2
mb
ESE
120°
9
mph
0.00"
7:52 AM BR 55° 54° 96
%
4
mi
1015.6
mb
ESE
120°
9
mph
0.00"
6:52 AM BR 54° 52° 93
%
6
mi
1015.2
mb
ESE
110°
8
mph
0.00"
5:52 AM 54° 53° 97
%
7
mi
1015.6
mb
E
100°
9
mph
0.00"
4:52 AM 54° 52° 93
%
8
mi
1015.6
mb
E
100°
8
mph
0.00"
3:52 AM 54° 52° 93
%
9
mi
1015.6
mb
E
100°
9
mph
0.00"
2:52 AM 54° 52° 93
%
9
mi
1015.9
mb
ESE
110°
7
mph
0.00"
1:52 AM 55° 52° 89
%
10
mi
1015.9
mb
ESE
110°
7
mph
0.00"
12:52 AM 56° 52° 87
%
10
mi
1015.9
mb
ESE
110°
7
mph
0.00"
11:52 PM 56° 52° 87
%
10
mi
1015.9
mb
ESE
120°
8
mph
0.00"
10:52 PM 59° 53° 81
%
10
mi
1015.9
mb
SE
130°
7
mph
0.00"
9:52 PM 61° 54° 78
%
10
mi
1015.9
mb
SE
130°
8
mph
0.00"
8:52 PM 66° 55° 68
%
10
mi
1015.6
mb
SSE
150°
6
mph
0.00"
7:52 PM 71° 55° 71°57
%
10
mi
1015.2
mb
SSE
150°
7
mph
0.00"
6:52 PM 77° 55° 77°47
%
10
mi
1015.2
mb
S
170°
9
mph
0.00"
5:52 PM 81° 55° 81°41
%
10
mi
1015.2
mb
S
180°
13
mph
0.00"